1486789201.17,60070,9.5,73730.3,-9.03,-10.97,-11.41,0,*51
1486789202.39,60071,9.5,73728.8,-9.05,-10.97,-11.41,0,*56
1486789203.63,60072,9.5,73730.0,-9.07,-11.01,-11.45,0,*5D
1486789204.86,60073,9.5,73730.5,-9.05,-10.85,-11.37,0,*56
1486789206.1,60074,9.5,73730.3,-9.05,-10.89,-11.37,0,*5D
1486789207.33,60075,9.5,73730.5,-9.05,-10.89,-11.37,0,*5C
1486789208.57,60076,9.5,73732.8,-9.05,-10.89,-11.37,0,*5F
1486789209.81,60077,9.5,73730.0,-9.03,-10.89,-11.41,0,*59
1486789211.05,60078,9.5,73724.8,-9.03,-10.89,-11.41,0,*56
1486789212.3,60079,9.5,73728.0,-9.03,-10.89,-11.37,0,*56
1486789213.54,60080,9.5,73726.5,-9.05,-10.89,-11.37,0,*56
1486789214.78,60081,9.5,73728.8,-9.05,-10.85,-11.29,0,*54
1486789216.01,60082,9.5,73730.3,-9.05,-10.85,-11.29,0,*57
1486789217.28,60083,9.5,73728.5,-9.03,-10.85,-11.29,0,*50
1486789218.54,60084,9.5,73730.8,-9.05,-10.79,-11.37,0,*5D
1486789219.77,60085,9.5,73730.0,-9.05,-10.79,-11.23,0,*59
1486789221.03,60086,9.5,73730.0,-9.03,-10.79,-11.23,0,*5C
1486789222.3,60087,9.5,73730.8,-9.03,-10.79,-11.23,0,*5D
1486789223.56,60088,9.5,73730.3,-9.03,-10.79,-11.23,0,*52
1486789224.82,60089,9.5,73732.5,-9.05,-10.71,-11.29,0,*57
1486789226.09,60090,9.5,73732.5,-9.03,-10.79,-11.23,0,*5B
1486789227.35,60091,9.5,73734.3,-9.03,-10.79,-11.23,0,*5A
1486789228.61,60092,9.5,73730.0,-9.05,-10.71,-11.29,0,*5D
1486789229.87,60093,9.5,73730.8,-9.03,-10.79,-11.23,0,*58
1486789231.14,60094,9.5,73734.5,-9.05,-10.79,-11.29,0,*53
1486789232.37,60095,9.5,73730.8,-9.03,-10.89,-11.23,0,*51
1486789233.63,60096,9.5,73732.3,-9.03,-10.85,-11.29,0,*54
1486789234.9,60097,9.5,73734.0,-9.03,-10.85,-11.29,0,*55
1486789236.13,60098,9.5,73730.5,-9.05,-10.85,-11.29,0,*5C
1486789237.39,60099,9.5,73734.3,-9.03,-10.85,-11.37,0,*54
1486789238.65,60100,9.5,73732.5,-9.03,-10.89,-11.29,0,*56
1486789239.89,60101,9.5,73728.0,-9.03,-10.89,-11.41,0,*59
1486789241.14,60102,9.5,73734.5,-9.03,-10.97,-11.41,0,*55
1486789242.38,60103,9.5,73734.0,-9.03,-10.97,-11.41,0,*54
1486789243.6,60104,9.5,73732.5,-9.05,-11.01,-11.41,0,*5B
1486789244.85,60105,9.5,73730.8,-9.03,-10.97,-11.41,0,*52
1486789246.09,60106,9.5,73730.8,-9.05,-10.97,-11.37,0,*56
1486789247.31,60107,9.5,73730.5,-9.05,-10.97,-11.41,0,*56
1486789248.56,60108,9.5,73728.8,-9.03,-10.97,-11.41,0,*5F
1486789249.8,60109,9.5,73724.3,-9.05,-11.01,-11.51,0,*57
1486789251.04,60110,9.5,73724.0,-9.05,-10.97,-11.51,0,*51
1486789252.28,60111,9.5,73726.3,-9.03,-10.97,-11.41,0,*57
1486789253.51,60112,9.5,73724.8,-9.05,-10.97,-11.41,0,*52
1486789254.72,60113,9.5,73726.8,-9.05,-10.89,-11.41,0,*5C
1486789255.95,60114,9.5,73730.0,-9.05,-10.89,-11.37,0,*5A
1486789257.21,60115,9.5,73728.5,-9.03,-10.89,-11.37,0,*5D
1486789258.45,60116,9.5,73734.0,-9.05,-10.89,-11.37,0,*58
1486789259.71,60117,9.5,73728.8,-9.03,-10.89,-11.37,0,*5F
1486789260.96,60118,9.5,73734.8,-9.03,-10.89,-11.37,0,*50
1486789262.23,60119,9.5,73728.5,-9.03,-10.97,-11.37,0,*5E
1486789263.47,60120,9.5,73730.5,-9.03,-10.97,-11.41,0,*55
1486789264.72,60121,9.5,73730.3,-9.05,-10.97,-11.37,0,*53
1486789265.96,60122,9.5,73728.3,-9.03,-10.97,-11.41,0,*57
1486789267.23,60123,9.5,73730.5,-9.03,-10.97,-11.51,0,*57
1486789268.47,60124,9.5,73732.3,-9.05,-11.01,-11.51,0,*58
1486789269.73,60125,9.5,73730.3,-9.03,-11.01,-11.51,0,*5F
1486789270.97,60126,9.5,73724.3,-9.05,-11.01,-11.37,0,*5A
1486789272.24,60127,9.5,73732.0,-9.03,-10.97,-11.55,0,*57
1486789273.51,60128,9.5,73734.5,-9.03,-11.01,-11.51,0,*52
1486789274.77,60129,9.5,73730.3,-9.03,-11.01,-11.51,0,*53
1486789276.03,60130,9.5,73730.5,-9.03,-11.11,-11.51,0,*5A
1486789277.29,60131,9.5,73732.3,-9.03,-11.11,-11.51,0,*5B
1486789278.55,60132,9.5,73734.0,-9.03,-11.11,-11.51,0,*58
1486789279.82,60133,9.5,73734.8,-9.03,-11.11,-11.55,0,*5D
1486789281.05,60134,9.5,73730.5,-9.05,-11.15,-11.55,0,*58
1486789282.32,60135,9.5,73728.8,-9.03,-11.11,-11.55,0,*5B
1486789283.58,60136,9.5,73724.8,-9.03,-11.15,-11.55,0,*5C
1486789284.84,60137,9.5,73728.8,-9.03,-11.15,-11.55,0,*5D
1486789286.11,60138,9.5,73730.5,-9.03,-11.15,-11.55,0,*52
1486789287.35,60139,9.5,73726.3,-9.05,-11.11,-11.55,0,*51
1486789288.59,60140,9.5,73730.3,-9.05,-11.15,-11.63,0,*5E
1486789289.84,60141,9.5,73730.5,-9.05,-11.23,-11.63,0,*5A
1486789291.11,60142,9.5,73730.3,-9.03,-11.23,-11.63,0,*5F
1486789292.35,60143,9.5,73730.3,-9.05,-11.23,-11.63,0,*58
1486789293.62,60144,9.5,73726.3,-9.03,-11.23,-11.55,0,*5C
1486789294.86,60145,9.5,73726.8,-9.05,-11.11,-11.55,0,*5A
1486789296.09,60146,9.5,73724.0,-9.05,-11.15,-11.51,0,*59
1486789297.33,60147,9.5,73726.3,-9.05,-11.15,-11.51,0,*58
1486789298.59,60148,9.5,73726.8,-9.03,-11.11,-11.55,0,*51
1486789299.85,60149,9.5,73720.3,-9.03,-11.11,-11.51,0,*54
1486789301.09,60150,9.5,73730.0,-9.05,-11.11,-11.55,0,*5E
1486789302.34,60151,9.5,73726.3,-9.03,-10.97,-11.41,0,*53
1486789303.56,60152,9.5,73726.8,-9.05,-11.01,-11.41,0,*58
1486789304.82,60153,9.5,73724.0,-9.03,-10.97,-11.51,0,*50
1486789306.09,60154,9.5,73724.5,-9.03,-11.01,-11.37,0,*59
1486789307.31,60155,9.5,73724.3,-9.05,-10.97,-11.41,0,*51
1486789308.55,60156,9.5,73726.3,-9.05,-10.97,-11.37,0,*53
1486789309.82,60157,9.5,73722.8,-9.03,-10.97,-11.37,0,*54
1486789311.06,60158,9.5,73728.3,-9.03,-10.97,-11.41,0,*5A
1486789312.29,60159,9.5,73726.0,-9.05,-10.85,-11.37,0,*5F
1486789313.53,60160,9.5,73728.0,-9.03,-10.89,-11.41,0,*5E
1486789314.75,60161,9.5,73722.8,-9.05,-10.89,-11.41,0,*59
1486789315.98,60162,9.5,73726.3,-9.05,-10.89,-11.37,0,*5B
1486789317.2,60163,9.5,73724.0,-9.05,-10.97,-11.41,0,*54
1486789318.42,60164,9.5,73726.5,-9.05,-10.89,-11.41,0,*5C
1486789319.68,60165,9.5,73728.5,-9.03,-10.89,-11.37,0,*5A
1486789320.92,60166,9.5,73726.3,-9.03,-10.89,-11.41,0,*58
1486789322.14,60167,9.5,73726.5,-9.05,-10.97,-11.41,0,*50
1486789323.4,60168,9.5,73726.8,-9.03,-10.97,-11.37,0,*58
1486789324.64,60169,9.5,73728.5,-9.05,-10.89,-11.37,0,*50
1486789325.9,60170,9.5,73730.0,-9.03,-10.97,-11.37,0,*51
1486789327.14,60171,9.5,73720.5,-9.05,-10.97,-11.37,0,*56
1486789328.4,60172,9.5,73728.5,-9.03,-10.89,-11.37,0,*5C
1486789329.66,60173,9.5,73728.0,-9.03,-10.89,-11.37,0,*5D
1486789330.9,60174,9.5,73730.5,-9.03,-10.97,-11.41,0,*54
1486789332.17,60175,9.5,73726.3,-9.03,-10.97,-11.37,0,*54
1486789333.41,60176,9.5,73730.8,-9.05,-11.01,-11.51,0,*5F
1486789334.68,60177,9.5,73728.0,-9.03,-10.97,-11.51,0,*56
1486789335.92,60178,9.5,73730.0,-9.03,-11.01,-11.41,0,*56
1486789337.19,60179,9.5,73730.3,-9.03,-11.01,-11.51,0,*56
1486789338.43,60180,9.5,73728.5,-9.05,-11.01,-11.55,0,*52
1486789339.7,60181,9.5,73730.3,-9.03,-10.97,-11.55,0,*5B
1486789340.96,60182,9.5,73730.5,-9.03,-11.01,-11.51,0,*52
1486789342.2,60183,9.5,73730.3,-9.05,-11.11,-11.55,0,*50
1486789343.44,60184,9.5,73730.0,-9.05,-11.11,-11.51,0,*53
1486789344.7,60185,9.5,73730.5,-9.03,-11.11,-11.51,0,*54
1486789345.93,60186,9.5,73726.3,-9.05,-11.11,-11.51,0,*51
1486789347.19,60187,9.5,73728.0,-9.03,-11.11,-11.51,0,*56
1486789348.46,60188,9.5,73724.5,-9.03,-11.11,-11.55,0,*5D
1486789349.72,60189,9.5,73726.5,-9.03,-11.11,-11.51,0,*58
1486789350.96,60190,9.5,73726.8,-9.05,-11.11,-11.55,0,*52
1486789352.2,60191,9.5,73726.0,-9.05,-11.15,-11.55,0,*57
1486789353.44,60192,9.5,73724.3,-9.05,-11.11,-11.55,0,*50
1486789354.67,60193,9.5,73724.0,-9.05,-11.15,-11.51,0,*51
1486789355.91,60194,9.5,73720.5,-9.05,-11.11,-11.55,0,*56
1486789357.15,60195,9.5,73724.0,-9.05,-11.11,-11.55,0,*57
1486789358.42,60196,9.5,73726.8,-9.03,-11.01,-11.55,0,*53
1486789359.64,60197,9.5,73720.0,-9.05,-11.01,-11.41,0,*51
1486789360.88,60198,9.5,73720.3,-9.03,-10.97,-11.41,0,*56
1486789362.11,60199,9.5,73724.3,-9.05,-10.97,-11.41,0,*51
1486789363.35,60200,9.5,73722.3,-9.05,-10.97,-11.37,0,*53
1486789364.58,60201,9.5,73724.8,-9.05,-10.89,-11.37,0,*5D
1486789365.84,60202,9.5,73724.8,-9.03,-10.85,-11.29,0,*5B
1486789367.08,60203,9.5,73728.0,-9.05,-10.85,-11.37,0,*53
1486789368.34,60204,9.5,73726.0,-9.03,-10.85,-11.29,0,*5D
1486789369.57,60205,9.5,73726.3,-9.05,-10.85,-11.29,0,*5A
1486789370.84,60206,9.5,73726.8,-9.03,-10.85,-11.29,0,*5F
1486789372.12,60207,9.5,73726.5,-9.03,-10.79,-11.29,0,*5D
1486789373.39,60208,9.5,73724.3,-9.05,-10.79,-11.29,0,*54
1486789374.65,60209,9.5,73728.3,-9.03,-10.79,-11.23,0,*59
1486789375.94,60210,9.5,73730.5,-9.03,-10.79,-11.29,0,*5B
1486789377.2,60211,9.5,73724.8,-9.03,-10.71,-11.23,0,*58
1486789378.46,60212,9.5,73726.5,-9.03,-10.79,-11.23,0,*53
1486789379.75,60213,9.5,73730.0,-9.03,-10.71,-11.29,0,*50
1486789380.99,60214,9.5,73728.0,-9.03,-10.85,-11.23,0,*56
1486789382.27,60215,9.5,73726.8,-9.03,-10.79,-11.29,0,*5E
1486789383.54,60216,9.5,73728.3,-9.03,-10.85,-11.29,0,*5E
1486789384.77,60217,9.5,73728.0,-9.05,-10.85,-11.29,0,*59
1486789386.06,60218,9.5,73724.3,-9.03,-10.79,-11.29,0,*53
1486789387.32,60219,9.5,73728.3,-9.03,-10.89,-11.37,0,*52
1486789388.58,60220,9.5,73724.5,-9.03,-10.89,-11.37,0,*58
1486789389.83,60221,9.5,73728.0,-8.99,-10.85,-11.33,0,*53
1486789391.09,60222,9.5,73730.8,-9.03,-10.85,-11.29,0,*59
1486789392.35,60223,9.5,73730.0,-9.03,-10.85,-11.29,0,*58
1486789393.61,60224,9.5,73730.3,-9.03,-10.89,-11.29,0,*53
1486789394.86,60225,9.5,73726.3,-8.99,-10.85,-11.33,0,*57
1486789396.12,60226,9.5,73730.3,-8.99,-10.79,-11.23,0,*56
1486789397.35,60227,9.5,73730.0,-8.99,-10.85,-11.23,0,*54
1486789398.61,60228,9.5,73730.5,-9.03,-10.85,-11.29,0,*53
1486789399.87,60229,9.5,73730.8,-9.03,-10.89,-11.37,0,*51
1486789401.15,60230,9.5,73730.5,-8.99,-10.79,-11.33,0,*50
1486789402.4,60231,9.5,73728.3,-8.99,-10.85,-11.33,0,*52
1486789403.68,60232,9.5,73730.3,-8.99,-10.79,-11.37,0,*56
1486789404.94,60233,9.5,73730.3,-8.99,-10.85,-11.37,0,*54
1486789406.19,60234,9.5,73728.0,-8.99,-10.85,-11.37,0,*53
1486789407.45,60235,9.5,73728.3,-9.03,-10.89,-11.51,0,*5C
1486789408.69,60236,9.5,73726.5,-9.03,-10.89,-11.41,0,*5E
1486789409.95,60237,9.5,73728.5,-9.03,-10.89,-11.51,0,*5E
1486789411.18,60238,9.5,73730.5,-8.99,-10.85,-11.45,0,*5A
1486789412.44,60239,9.5,73730.3,-8.99,-10.93,-11.37,0,*59
1486789413.67,60240,9.5,73726.5,-8.99,-10.85,-11.45,0,*55
1486789414.93,60241,9.5,73730.0,-8.99,-10.93,-11.37,0,*56
1486789416.19,60242,9.5,73730.5,-8.99,-10.93,-11.37,0,*55
1486789417.42,60243,9.5,73726.8,-8.99,-10.93,-11.45,0,*51
1486789418.68,60244,9.5,73730.0,-8.99,-10.93,-11.37,0,*53
1486789419.95,60245,9.5,73726.5,-9.03,-10.97,-11.37,0,*54
1486789421.19,60246,9.5,73724.5,-9.03,-10.89,-11.41,0,*59
1486789422.44,60247,9.5,73726.0,-8.99,-10.85,-11.37,0,*57
1486789423.68,60248,9.5,73728.0,-9.03,-10.89,-11.41,0,*57
1486789424.93,60249,9.5,73726.3,-8.99,-10.85,-11.37,0,*59
1486789426.19,60250,9.5,73728.8,-8.99,-10.93,-11.37,0,*56
1486789427.45,60251,9.5,73728.5,-8.99,-10.93,-11.37,0,*57
1486789428.71,60252,9.5,73730.8,-8.99,-10.97,-11.37,0,*50
1486789429.97,60253,9.5,73728.0,-8.99,-10.85,-11.37,0,*52
1486789431.2,60254,9.5,73728.0,-8.99,-10.93,-11.45,0,*57
1486789432.45,60255,9.5,73728.0,-8.99,-10.85,-11.33,0,*50
1486789433.72,60256,9.5,73724.3,-9.03,-10.97,-11.51,0,*56
1486789434.98,60257,9.5,73724.0,-8.99,-10.93,-11.51,0,*51
1486789436.21,60258,9.5,73726.3,-8.99,-10.85,-11.45,0,*5C
1486789437.45,60259,9.5,73724.0,-8.99,-10.93,-11.45,0,*5A
1486789438.68,60260,9.5,73726.5,-8.99,-10.97,-11.45,0,*54
1486789439.94,60261,9.5,73724.5,-8.99,-10.93,-11.37,0,*54
1486789441.18,60262,9.5,73728.8,-8.99,-10.93,-11.45,0,*52
1486789442.42,60263,9.5,73726.5,-8.99,-10.93,-11.45,0,*53
1486789443.65,60264,9.5,73726.5,-8.99,-10.93,-11.45,0,*54
1486789444.87,60265,9.5,73724.5,-8.97,-10.97,-11.45,0,*5F
1486789446.1,60266,9.5,73728.0,-8.99,-10.93,-11.45,0,*56
1486789447.34,60267,9.5,73728.3,-8.99,-10.93,-11.45,0,*57
1486789448.58,60268,9.5,73724.5,-8.99,-10.97,-11.45,0,*5C
1486789449.85,60269,9.5,73726.3,-9.03,-11.01,-11.55,0,*50
1486789451.11,60270,9.5,73732.0,-8.99,-10.93,-11.51,0,*54
1486789452.37,60271,9.5,73724.0,-8.99,-10.97,-11.51,0,*51
1486789453.64,60272,9.5,73730.0,-9.03,-11.01,-11.55,0,*5A
1486789454.91,60273,9.5,73728.5,-9.03,-11.01,-11.55,0,*5B
1486789456.17,60274,9.5,73730.5,-8.99,-10.93,-11.51,0,*50
1486789457.43,60275,9.5,73728.0,-8.99,-10.97,-11.51,0,*55
1486789458.69,60276,9.5,73730.5,-8.99,-10.93,-11.51,0,*52
1486789459.92,60277,9.5,73728.8,-8.99,-10.85,-11.45,0,*51
1486789461.16,60278,9.5,73730.5,-8.99,-10.93,-11.45,0,*59
1486789462.39,60279,9.5,73730.3,-8.99,-10.93,-11.45,0,*58
1486789463.63,60280,9.5,73728.8,-8.97,-10.93,-11.51,0,*55
1486789464.89,60281,9.5,73730.8,-8.99,-10.93,-11.51,0,*5A
1486789466.15,60282,9.5,73728.8,-8.99,-10.93,-11.51,0,*59
1486789467.41,60283,9.5,73730.0,-8.99,-10.97,-11.51,0,*5C
1486789468.64,60284,9.5,73730.5,-8.99,-10.93,-11.45,0,*5A
1486789469.9,60285,9.5,73732.0,-8.99,-10.93,-11.51,0,*5E
1486789471.17,60286,9.5,73730.3,-8.99,-10.97,-11.51,0,*59
1486789472.43,60287,9.5,73730.8,-8.99,-10.93,-11.51,0,*5C
1486789473.69,60288,9.5,73728.8,-8.99,-10.97,-11.51,0,*57
1486789474.94,60289,9.5,73730.3,-8.99,-11.11,-11.51,0,*59
1486789476.2,60290,9.5,73730.3,-8.99,-11.11,-11.51,0,*51
1486789477.49,60291,9.5,73732.5,-8.99,-11.07,-11.59,0,*5F
1486789478.77,60292,9.5,73728.8,-8.99,-11.07,-11.59,0,*5C
1486789480.06,60293,9.5,73730.5,-8.99,-11.07,-11.59,0,*5D
1486789481.33,60294,9.5,73728.5,-9.03,-11.11,-11.63,0,*56
1486789482.59,60295,9.5,73730.5,-9.03,-11.11,-11.63,0,*57
1486789483.88,60296,9.5,73730.0,-8.99,-11.07,-11.59,0,*58
1486789485.17,60297,9.5,73728.5,-8.99,-11.07,-11.59,0,*59
1486789486.43,60298,9.5,73726.5,-9.03,-11.11,-11.67,0,*5E
1486789487.69,60299,9.5,73726.5,-8.99,-10.97,-11.59,0,*5F
1486789488.96,60300,9.5,73728.3,-9.03,-11.11,-11.63,0,*5A
1486789490.23,60301,9.5,73728.3,-9.03,-11.01,-11.63,0,*5A
1486789491.49,60302,9.5,73726.8,-8.99,-10.93,-11.59,0,*58
1486789492.75,60303,9.5,73724.5,-8.99,-10.93,-11.51,0,*51
1486789494.02,60304,9.5,73726.3,-9.03,-11.01,-11.55,0,*5A
1486789495.28,60305,9.5,73728.3,-9.03,-11.01,-11.51,0,*5F
1486789496.54,60306,9.5,73728.0,-9.03,-10.89,-11.51,0,*5D
1486789497.8,60307,9.5,73728.8,-9.03,-10.89,-11.51,0,*5C
1486789499.06,60308,9.5,73730.5,-9.03,-10.85,-11.51,0,*5F
1486789500.3,60309,9.5,73728.5,-9.03,-10.85,-11.41,0,*5F
1486789501.53,60310,9.5,73730.3,-9.03,-10.85,-11.41,0,*57
1486789502.77,60311,9.5,73728.8,-9.03,-10.85,-11.41,0,*56
1486789504.01,60312,9.5,73730.5,-9.03,-10.85,-11.41,0,*55
1486789505.27,60313,9.5,73730.5,-9.03,-10.85,-11.51,0,*55
1486789506.51,60314,9.5,73730.8,-9.03,-10.89,-11.41,0,*5F
1486789507.77,60315,9.5,73728.8,-9.03,-10.89,-11.55,0,*5B
1486789509.03,60316,9.5,73734.5,-9.03,-10.97,-11.51,0,*53
1486789510.29,60317,9.5,73728.5,-9.03,-10.85,-11.51,0,*51
1486789511.55,60318,9.5,73730.0,-9.03,-10.89,-11.55,0,*56
1486789512.82,60319,9.5,73728.5,-9.03,-10.97,-11.55,0,*58
1486789514.08,60320,9.5,73728.8,-9.03,-10.89,-11.51,0,*59
1486789515.34,60321,9.5,73728.3,-8.99,-10.85,-11.51,0,*56
1486789516.57,60322,9.5,73730.0,-8.99,-10.93,-11.45,0,*57
1486789517.81,60323,9.5,73728.0,-8.99,-10.93,-11.45,0,*56
1486789519.07,60324,9.5,73728.8,-8.99,-10.93,-11.51,0,*54
1486789520.33,60325,9.5,73730.5,-8.99,-10.93,-11.51,0,*55
1486789521.56,60326,9.5,73730.5,-8.99,-10.85,-11.45,0,*54
1486789522.79,60327,9.5,73726.0,-8.97,-10.85,-11.51,0,*5E
1486789524.05,60328,9.5,73728.0,-8.99,-10.79,-11.45,0,*59
1486789525.33,60329,9.5,73722.5,-8.99,-10.79,-11.37,0,*5D
1486789526.61,60330,9.5,73726.3,-8.99,-10.79,-11.37,0,*55
1486789527.9,60331,9.5,73728.8,-8.99,-10.79,-11.37,0,*54
1486789529.18,60332,9.5,73728.0,-8.99,-10.79,-11.51,0,*57
1486789530.44,60333,9.5,73728.3,-8.99,-10.75,-11.45,0,*5F
1486789531.69,60334,9.5,73726.5,-8.99,-10.85,-11.33,0,*56
1486789532.92,60335,9.5,73726.5,-8.97,-10.79,-11.45,0,*5B
1486789534.2,60336,9.5,73728.5,-8.99,-10.79,-11.37,0,*53
1486789535.49,60337,9.5,73724.3,-8.99,-10.79,-11.37,0,*52
1486789536.77,60338,9.5,73724.0,-8.99,-10.75,-11.37,0,*51
1486789538.05,60339,9.5,73726.3,-8.99,-10.79,-11.33,0,*58
1486789539.32,60340,9.5,73726.5,-8.99,-10.75,-11.33,0,*5A
1486789540.59,60341,9.5,73726.8,-9.03,-10.71,-11.41,0,*58
1486789541.87,60342,9.5,73724.3,-8.99,-10.75,-11.33,0,*58
1486789543.13,60343,9.5,73728.3,-8.97,-10.67,-11.33,0,*54
1486789544.4,60344,9.5,73726.0,-8.97,-10.67,-11.37,0,*57
1486789545.68,60345,9.5,73724.3,-8.99,-10.67,-11.33,0,*5C
1486789546.96,60346,9.5,73724.5,-8.99,-10.75,-11.33,0,*5C
1486789548.25,60347,9.5,73726.0,-8.99,-10.67,-11.37,0,*5A
1486789549.51,60348,9.5,73728.0,-8.97,-10.67,-11.33,0,*5F
1486789550.76,60349,9.5,73726.3,-8.97,-10.75,-11.33,0,*5D
1486789552.05,60350,9.5,73730.0,-8.99,-10.67,-11.33,0,*58
1486789553.3,60351,9.5,73726.0,-8.97,-10.75,-11.33,0,*54
1486789554.57,60352,9.5,73724.3,-8.97,-10.67,-11.33,0,*54
1486789555.84,60353,9.5,73726.0,-8.99,-10.75,-11.33,0,*58
1486789557.11,60354,9.5,73728.5,-8.97,-10.67,-11.37,0,*56
1486789558.39,60355,9.5,73724.5,-8.99,-10.67,-11.33,0,*5D
1486789559.68,60356,9.5,73724.0,-8.99,-10.67,-11.33,0,*5E
1486789560.93,60357,9.5,73728.3,-8.97,-10.75,-11.33,0,*52
1486789562.22,60358,9.5,73730.5,-8.99,-10.75,-11.37,0,*57
1486789563.5,60359,9.5,73722.5,-8.99,-10.75,-11.37,0,*56
1486789564.76,60360,9.5,73726.5,-8.99,-10.75,-11.45,0,*59
1486789566.04,60361,9.5,73728.5,-8.99,-10.79,-11.37,0,*51
1486789567.27,60362,9.5,73726.3,-8.99,-10.85,-11.45,0,*54
1486789568.5,60363,9.5,73724.5,-8.97,-10.79,-11.45,0,*58
1486789569.74,60364,9.5,73728.5,-8.97,-10.79,-11.45,0,*5F
1486789570.95,60365,9.5,73730.5,-8.97,-10.85,-11.45,0,*5D
1486789572.19,60366,9.5,73728.5,-8.97,-10.79,-11.45,0,*5D
1486789573.42,60367,9.5,73730.0,-8.99,-10.85,-11.45,0,*51
1486789574.68,60368,9.5,73730.5,-8.99,-10.93,-11.51,0,*5C
1486789575.91,60369,9.5,73732.0,-8.97,-10.93,-11.51,0,*53
1486789577.17,60370,9.5,73728.5,-8.99,-10.85,-11.51,0,*52
1486789578.41,60371,9.5,73728.0,-8.97,-10.97,-11.51,0,*5E
1486789579.67,60372,9.5,73728.8,-8.99,-10.97,-11.51,0,*53
1486789580.93,60373,9.5,73728.8,-8.99,-10.93,-11.59,0,*5E
1486789582.19,60374,9.5,73726.3,-8.99,-10.97,-11.59,0,*5D
1486789583.43,60375,9.5,73726.5,-8.97,-10.97,-11.59,0,*52
1486789584.7,60376,9.5,73726.5,-8.99,-10.97,-11.59,0,*5F
1486789585.96,60377,9.5,73726.5,-8.99,-10.97,-11.59,0,*5E
1486789587.22,60378,9.5,73728.0,-8.99,-10.97,-11.59,0,*51
1486789588.49,60379,9.5,73724.3,-8.99,-10.97,-11.63,0,*59
1486789589.76,60380,9.5,73726.5,-8.99,-10.97,-11.59,0,*56
1486789591.02,60381,9.5,73724.8,-8.97,-11.07,-11.59,0,*51
1486789592.28,60382,9.5,73728.3,-8.99,-10.97,-11.59,0,*54
1486789593.55,60383,9.5,73724.8,-8.99,-10.97,-11.59,0,*55
1486789594.81,60384,9.5,73728.3,-8.99,-10.97,-11.59,0,*52
1486789596.06,60385,9.5,73728.0,-8.97,-10.97,-11.63,0,*54
1486789597.32,60386,9.5,73726.5,-8.99,-10.97,-11.59,0,*50
1486789598.58,60387,9.5,73728.3,-8.99,-10.93,-11.59,0,*55
1486789599.82,60388,9.5,73730.5,-8.97,-10.93,-11.59,0,*54
1486789601.08,60389,9.5,73728.5,-8.99,-10.97,-11.59,0,*5F
1486789602.34,60390,9.5,73728.0,-8.99,-10.93,-11.59,0,*53
1486789603.58,60391,9.5,73730.8,-8.97,-10.93,-11.59,0,*5C
1486789604.82,60392,9.5,73730.3,-8.97,-10.97,-11.59,0,*5B
1486789606.08,60393,9.5,73728.8,-8.99,-10.93,-11.59,0,*50
1486789607.34,60394,9.5,73728.5,-8.99,-10.97,-11.59,0,*53
1486789608.6,60395,9.5,73728.8,-8.99,-10.97,-11.59,0,*52
1486789609.87,60396,9.5,73730.5,-8.99,-10.97,-11.51,0,*59
1486789611.13,60397,9.5,73728.3,-8.99,-10.97,-11.51,0,*58
1486789612.39,60398,9.5,73730.0,-8.99,-10.97,-11.51,0,*57
1486789613.66,60399,9.5,73732.8,-8.99,-10.97,-11.59,0,*5E
1486789614.94,60400,9.5,73730.5,-8.99,-11.07,-11.59,0,*51
1486789616.2,60401,9.5,73726.5,-8.99,-10.97,-11.59,0,*58
1486789617.47,60402,9.5,73726.0,-8.99,-10.97,-11.59,0,*5B
1486789618.73,60403,9.5,73726.0,-8.99,-10.93,-11.59,0,*5E
1486789619.97,60404,9.5,73730.5,-8.97,-10.97,-11.59,0,*53
1486789621.23,60405,9.5,73724.5,-8.99,-10.97,-11.59,0,*5C
1486789622.5,60406,9.5,73730.5,-8.99,-10.97,-11.59,0,*5F
1486789623.76,60407,9.5,73724.3,-8.99,-10.97,-11.59,0,*5E
1486789625.03,60408,9.5,73726.3,-8.99,-10.97,-11.63,0,*58
1486789626.3,60409,9.5,73730.3,-8.99,-10.97,-11.63,0,*59
1486789627.56,60410,9.5,73726.5,-8.99,-10.97,-11.59,0,*58
1486789628.83,60411,9.5,73724.5,-8.99,-10.93,-11.63,0,*54
1486789630.09,60412,9.5,73730.3,-8.99,-10.97,-11.59,0,*5A
1486789631.38,60413,9.5,73730.0,-8.99,-11.07,-11.59,0,*53
1486789632.62,60414,9.5,73732.5,-8.97,-10.97,-11.59,0,*52
1486789633.86,60415,9.5,73728.3,-8.97,-10.97,-11.59,0,*53
1486789635.12,60416,9.5,73728.0,-8.99,-10.97,-11.59,0,*5E
1486789636.39,60417,9.5,73728.8,-8.99,-10.97,-11.63,0,*56
1486789637.65,60418,9.5,73730.3,-8.99,-10.93,-11.59,0,*54
1486789638.91,60419,9.5,73728.5,-8.99,-10.97,-11.59,0,*51
1486789640.18,60420,9.5,73730.8,-8.99,-10.97,-11.51,0,*53
1486789641.41,60421,9.5,73728.3,-8.97,-10.93,-11.51,0,*58
1486789642.67,60422,9.5,73730.3,-8.99,-10.93,-11.59,0,*5D
1486789643.91,60423,9.5,73728.5,-8.97,-10.97,-11.59,0,*56
1486789645.18,60424,9.5,73730.5,-8.99,-10.97,-11.59,0,*5F
1486789646.44,60425,9.5,73728.5,-8.99,-10.97,-11.59,0,*5E
1486789647.73,60426,9.5,73730.0,-8.99,-11.07,-11.63,0,*5C
1486789649.02,60427,9.5,73730.0,-8.99,-11.07,-11.59,0,*54
1486789650.28,60428,9.5,73728.0,-8.99,-10.97,-11.59,0,*53
1486789651.55,60429,9.5,73728.5,-8.99,-10.97,-11.59,0,*52
1486789652.81,60430,9.5,73730.3,-9.03,-10.97,-11.67,0,*55
1486789654.06,60431,9.5,73728.3,-9.05,-11.11,-11.63,0,*59
1486789655.3,60432,9.5,73726.5,-8.97,-10.97,-11.63,0,*5F
1486789656.57,60433,9.5,73730.5,-8.99,-10.97,-11.59,0,*59
1486789657.83,60434,9.5,73724.8,-8.99,-10.97,-11.59,0,*5E
1486789659.1,60435,9.5,73726.0,-8.99,-10.97,-11.59,0,*5F
1486789660.38,60436,9.5,73728.5,-8.99,-11.07,-11.59,0,*54
1486789661.67,60437,9.5,73726.3,-8.99,-11.07,-11.59,0,*55
1486789662.93,60438,9.5,73726.3,-9.03,-11.11,-11.63,0,*56
1486789664.2,60439,9.5,73724.8,-9.03,-11.11,-11.63,0,*57
1486789665.47,60440,9.5,73726.5,-9.03,-11.01,-11.67,0,*5C
1486789666.76,60441,9.5,73728.5,-8.99,-11.07,-11.63,0,*5D
1486789668.03,60442,9.5,73728.8,-8.99,-10.97,-11.63,0,*56
1486789669.29,60443,9.5,73730.8,-8.99,-10.97,-11.59,0,*5E
1486789670.56,60444,9.5,73730.0,-8.99,-10.97,-11.63,0,*50
1486789671.84,60445,9.5,73728.5,-9.03,-11.01,-11.63,0,*5D
1486789673.1,60446,9.5,73730.3,-9.03,-11.01,-11.67,0,*5A
1486789674.37,60447,9.5,73732.8,-9.03,-11.11,-11.63,0,*5E
1486789675.64,60448,9.5,73732.5,-9.03,-11.01,-11.63,0,*50
1486789676.89,60449,9.5,73734.3,-9.05,-11.11,-11.63,0,*56
1486789678.15,60450,9.5,73730.5,-9.03,-11.11,-11.63,0,*58
1486789679.41,60451,9.5,73730.3,-9.03,-11.11,-11.67,0,*5D
1486789680.68,60452,9.5,73730.8,-9.03,-11.15,-11.63,0,*5E
1486789681.95,60453,9.5,73732.0,-9.03,-11.11,-11.67,0,*5F
1486789683.21,60454,9.5,73730.3,-9.03,-11.11,-11.63,0,*5C
1486789684.45,60455,9.5,73734.0,-9.05,-11.11,-11.67,0,*5F
1486789685.72,60456,9.5,73730.8,-9.03,-11.11,-11.67,0,*5A
1486789686.98,60457,9.5,73730.5,-9.03,-11.11,-11.63,0,*5F
1486789688.25,60458,9.5,73728.3,-9.03,-11.11,-11.63,0,*50
1486789689.5,60459,9.5,73726.5,-9.05,-11.01,-11.63,0,*56
1486789690.75,60460,9.5,73730.3,-9.05,-11.01,-11.63,0,*5C
1486789692.02,60461,9.5,73728.0,-9.03,-11.01,-11.63,0,*5B
1486789693.28,60462,9.5,73728.0,-9.03,-11.01,-11.55,0,*5D
1486789694.55,60463,9.5,73730.0,-9.03,-11.01,-11.51,0,*58
1486789695.82,60464,9.5,73726.8,-9.03,-10.97,-11.55,0,*55
1486789697.09,60465,9.5,73730.5,-9.03,-11.01,-11.55,0,*5A
1486789698.35,60466,9.5,73730.8,-9.03,-11.01,-11.51,0,*5D
1486789699.62,60467,9.5,73730.3,-9.03,-10.97,-11.55,0,*56
1486789700.89,60468,9.5,73732.8,-9.03,-11.01,-11.51,0,*53
1486789702.15,60469,9.5,73730.8,-9.03,-10.97,-11.55,0,*58
1486789703.42,60470,9.5,73730.8,-9.03,-11.01,-11.55,0,*5E
1486789704.69,60471,9.5,73730.3,-9.03,-10.97,-11.55,0,*51
1486789705.94,60472,9.5,73728.8,-9.05,-11.01,-11.55,0,*5A
1486789707.2,60473,9.5,73728.5,-9.03,-11.01,-11.51,0,*59
1486789708.44,60474,9.5,73734.0,-9.05,-11.01,-11.51,0,*58
1486789709.71,60475,9.5,73728.8,-9.03,-10.97,-11.55,0,*55
1486789710.98,60476,9.5,73730.8,-9.03,-10.97,-11.51,0,*52
1486789712.24,60477,9.5,73732.0,-9.03,-11.01,-11.55,0,*59
1486789713.51,60478,9.5,73730.5,-9.03,-11.01,-11.55,0,*56
1486789714.78,60479,9.5,73728.5,-9.03,-11.01,-11.55,0,*57
1486789716.03,60480,9.5,73734.8,-9.05,-11.01,-11.55,0,*57
1486789717.29,60481,9.5,73732.5,-9.03,-11.01,-11.55,0,*50
1486789718.56,60482,9.5,73734.0,-9.03,-11.11,-11.55,0,*52
1486789719.82,60483,9.5,73734.8,-9.03,-11.01,-11.55,0,*52